KE7YUP Weather Reports


time (UTC)temp
C
wind
direction
speed
KPH
gust
KPH
rain 1hr
cm
rain 24hr
cm
rain mn
cm
humidity
%
barometer
mb
20260504215817 18 290 16.1 25.7 0.00 0.00 0.00 38 1008.9
20260504214816 18 291 17.7 24.1 0.00 0.00 0.00 40 1009.1
20260504213816 17 279 11.3 22.5 0.00 0.00 0.00 39 1008.9
20260504212817 17 277 11.3 17.7 0.00 0.00 0.00 41 1009.3
20260504211817 17 263 22.5 29.0 0.00 0.00 0.00 39 1009.5
20260504210836 17 279 12.9 22.5 0.00 0.00 0.00 40 1009.5
20260504205816 18 305 19.3 27.4 0.00 0.00 0.00 41 1009.6
20260504204816 18 266 16.1 27.4 0.00 0.00 0.00 37 1009.5
20260504203817 20 281 12.9 25.7 0.00 0.00 0.00 34 1010.1
20260504202817 20 162 9.7 14.5 0.00 0.00 0.00 34 1010.2
20260504201837 20 147 8.0 17.7 0.00 0.00 0.00 33 1010.1
20260504200816 20 100 14.5 22.5 0.00 0.00 0.00 33 1010.0
20260504195816 20 141 19.3 24.1 0.00 0.00 0.00 31 1009.7
20260504194816 20 120 19.3 25.7 0.00 0.00 0.00 32 1009.9
20260504193837 20 141 11.3 22.5 0.00 0.00 0.00 32 1009.9
20260504192816 20 125 17.7 25.7 0.00 0.00 0.00 32 1010.7
20260504191816 20 99 14.5 22.5 0.00 0.00 0.00 33 1010.8
20260504190816 21 119 12.9 24.1 0.00 0.00 0.00 32 1010.8
20260504185816 20 126 16.1 22.5 0.00 0.00 0.00 34 1011.1
20260504184816 20 122 12.9 24.1 0.00 0.00 0.00 34 1011.1
20260504183837 20 99 11.3 16.1 0.00 0.00 0.00 34 1011.3
20260504182816 20 106 6.4 19.3 0.00 0.00 0.00 34 1011.0
20260504181836 20 88 11.3 16.1 0.00 0.00 0.00 35 1011.1
20260504180836 19 137 9.7 16.1 0.00 0.00 0.00 36 1011.4
20260504175816 19 95 8.0 20.9 0.00 0.00 0.00 38 1012.2
20260504174816 19 88 14.5 22.5 0.00 0.00 0.00 37 1012.4
20260504173816 19 82 9.7 22.5 0.00 0.00 0.00 38 1012.4
20260504172816 18 86 17.7 22.5 0.00 0.00 0.00 38 1013.0
20260504171836 18 98 11.3 17.7 0.00 0.00 0.00 37 1013.0
20260504170837 18 130 12.9 19.3 0.00 0.00 0.00 38 1013.1
20260504150815 16 137 4.8 8.0 0.00 0.00 0.00 45 1014.0
20260504140815 13 327 1.6 4.8 0.00 0.00 0.00 54 1013.3
20260504130816 12 11 3.2 6.4 0.00 0.00 0.00 59 1013.5
20260504081817 14 118 3.2 6.4 0.00 0.00 0.00 32 1013.3
20260504080817 14 269 8.0 17.7 0.00 0.00 0.00 32 1013.2
20260504045815 17 321 9.7 16.1 0.00 0.00 0.00 25 1013.0
20260504044815 17 312 9.7 14.5 0.00 0.00 0.00 25 1013.0
20260504043815 17 311 12.9 16.1 0.00 0.00 0.00 26 1013.1
20260504042816 17 302 11.3 16.1 0.00 0.00 0.00 27 1012.5
20260504041836 17 310 6.4 11.3 0.00 0.00 0.00 26 1012.5
20260504040856 17 349 3.2 4.8 0.00 0.00 0.00 26 1012.8
20260504035815 17 322 9.7 14.5 0.00 0.00 0.00 25 1012.1
20260504034815 17 318 12.9 16.1 0.00 0.00 0.00 25 1012.1
20260504033815 18 0.0 0.0 0.00 0.00 0.00 24 1012.4
20260504032835 18 172 0.0 1.6 0.00 0.00 0.00 24 1012.5
20260504031815 20 159 4.8 9.7 0.00 0.00 0.00 22 1012.6
20260504030815 20 15 6.4 12.9 0.00 0.00 0.00 21 1012.5
20260504025815 20 354 16.1 35.4 0.00 0.00 0.00 19 1011.8
20260504024815 20 357 6.4 9.7 0.00 0.00 0.00 21 1012.1
20260504023815 20 4 4.8 11.3 0.00 0.00 0.00 21 1011.9
20260504022815 20 346 4.8 8.0 0.00 0.00 0.00 21 1011.6
20260504021815 20 359 11.3 17.7 0.00 0.00 0.00 20 1011.6
20260504020815 20 12 3.2 6.4 0.00 0.00 0.00 20 1011.6
20260504015815 20 2 6.4 9.7 0.00 0.00 0.00 19 1012.2
20260504014815 21 41 3.2 11.3 0.00 0.00 0.00 19 1012.5
20260504013815 21 10 1.6 4.8 0.00 0.00 0.00 18 1012.7
20260504012815 21 6 9.7 14.5 0.00 0.00 0.00 18 1011.9
20260504011815 21 38 11.3 16.1 0.00 0.00 0.00 19 1012.0
20260504010815 21 353 9.7 17.7 0.00 0.00 0.00 17 1012.1
20260504005815 21 344 3.2 8.0 0.00 0.00 0.00 17 1012.3
20260504004815 21 271 3.2 6.4 0.00 0.00 0.00 18 1012.4
20260504003815 21 154 1.6 3.2 0.00 0.00 0.00 16 1012.5
20260504002815 21 234 9.7 20.9 0.00 0.00 0.00 17 1013.1
20260504001815 21 208 19.3 29.0 0.00 0.00 0.00 17 1013.3
20260504000815 22 152 1.6 6.4 0.00 0.00 0.00 15 1013.4
20260503235815 22 164 6.4 9.7 0.00 0.00 0.00 16 1013.0
20260503234835 22 147 4.8 8.0 0.00 0.00 0.00 15 1013.3
20260503233815 22 166 4.8 9.7 0.00 0.00 0.00 15 1013.3
20260503232815 22 143 4.8 12.9 0.00 0.00 0.00 16 1013.2
20260503231815 22 90 4.8 14.5 0.00 0.00 0.00 15 1013.2
20260503230835 22 111 6.4 14.5 0.00 0.00 0.00 15 1013.3
20260503225817 22 72 4.8 9.7 0.00 0.00 0.00 15 1013.4
20260503224817 22 126 8.0 14.5 0.00 0.00 0.00 15 1013.4
20260503223817 22 94 11.3 19.3 0.00 0.00 0.00 15 1013.6
20260503222817 22 94 11.3 17.7 0.00 0.00 0.00 15 1013.7
20260503221817 22 93 6.4 12.9 0.00 0.00 0.00 16 1013.9
20260503220817 22 110 8.0 14.5 0.00 0.00 0.00 15 1014.0